Time,TemperatureF,DewpointF,PressureIn,WindDirection,WindDirectionDegrees,WindSpeedMPH,WindSpeedGustMPH,Humidity,HourlyPrecipIn,Conditions,Clouds,dailyrainin,SolarRadiationWatts/m^2,SoftwareType,DateUTC
2013-01-07 00:22:00,38.0,33.0,-100.00,WNW,286,13.0,19.0,81,0.00,,,0.00,0.000000,,2013-01-07 08:22:00,
2013-01-07 00:32:00,38.0,33.0,-100.00,WNW,286,13.0,19.0,81,0.00,,,0.00,0.000000,,2013-01-07 08:32:00,
2013-01-07 00:42:00,38.0,33.0,-100.00,WNW,286,13.0,19.0,81,0.00,,,0.00,0.000000,,2013-01-07 08:42:00,
2013-01-07 00:52:00,38.0,33.0,-100.00,WNW,286,13.0,19.0,81,0.00,,,0.00,0.000000,,2013-01-07 08:52:00,
2013-01-07 01:22:00,38.0,33.0,-100.00,WNW,292,9.0,20.0,83,0.00,,,0.00,0.000000,,2013-01-07 09:22:00,
2013-01-07 01:32:00,38.0,33.0,-100.00,WNW,292,9.0,20.0,83,0.00,,,0.00,0.000000,,2013-01-07 09:32:00,
2013-01-07 01:42:00,38.0,33.0,-100.00,WNW,292,9.0,20.0,83,0.00,,,0.00,0.000000,,2013-01-07 09:42:00,
2013-01-07 01:52:00,38.0,33.0,-100.00,WNW,292,9.0,20.0,83,0.00,,,0.00,0.000000,,2013-01-07 09:52:00,
2013-01-07 02:22:00,35.0,32.0,-100.00,WNW,291,9.0,13.0,87,0.00,,,0.00,0.000000,,2013-01-07 10:22:00,
2013-01-07 02:32:00,35.0,32.0,-100.00,WNW,291,9.0,13.0,87,0.00,,,0.00,0.000000,,2013-01-07 10:32:00,
2013-01-07 02:42:00,35.0,32.0,-100.00,WNW,291,9.0,13.0,87,0.00,,,0.00,0.000000,,2013-01-07 10:42:00,
2013-01-07 02:52:00,35.0,32.0,-100.00,WNW,291,9.0,13.0,87,0.00,,,0.00,0.000000,,2013-01-07 10:52:00,
2013-01-07 03:22:00,36.0,33.0,-100.00,WNW,283,11.0,17.0,88,0.00,,,0.00,0.000000,,2013-01-07 11:22:00,
2013-01-07 03:32:00,36.0,33.0,-100.00,WNW,283,11.0,17.0,88,0.00,,,0.00,0.000000,,2013-01-07 11:32:00,
2013-01-07 03:43:00,36.0,33.0,-100.00,WNW,283,11.0,17.0,88,0.00,,,0.00,0.000000,,2013-01-07 11:43:00,
2013-01-07 03:52:00,36.0,33.0,-100.00,WNW,283,11.0,17.0,88,0.00,,,0.00,0.000000,,2013-01-07 11:52:00,
2013-01-07 04:22:00,36.0,33.0,-100.00,WNW,284,10.0,18.0,88,0.00,,,0.00,0.000000,,2013-01-07 12:22:00,
2013-01-07 04:32:00,36.0,33.0,-100.00,WNW,284,10.0,18.0,88,0.00,,,0.00,0.000000,,2013-01-07 12:32:00,
2013-01-07 04:43:00,36.0,33.0,-100.00,WNW,284,10.0,18.0,88,0.00,,,0.00,0.000000,,2013-01-07 12:43:00,
2013-01-07 04:52:00,36.0,33.0,-100.00,WNW,284,10.0,18.0,88,0.00,,,0.00,0.000000,,2013-01-07 12:52:00,
2013-01-07 05:23:00,33.0,29.0,-100.00,WNW,287,11.0,16.0,85,0.00,,,-99.99,0.000000,,2013-01-07 13:23:00,
2013-01-07 05:33:00,33.0,29.0,-100.00,WNW,287,11.0,16.0,85,0.00,,,-99.99,0.000000,,2013-01-07 13:33:00,
2013-01-07 05:42:00,33.0,29.0,-100.00,WNW,287,11.0,16.0,85,0.00,,,-99.99,0.000000,,2013-01-07 13:42:00,
2013-01-07 05:52:00,33.0,29.0,-100.00,WNW,287,11.0,16.0,85,0.00,,,-99.99,0.000000,,2013-01-07 13:52:00,
2013-01-07 06:22:00,36.0,31.0,-100.00,West,280,19.0,26.0,83,0.00,,,0.00,0.000000,,2013-01-07 14:22:00,
2013-01-07 06:33:00,36.0,31.0,-100.00,West,280,19.0,26.0,83,0.00,,,0.00,0.000000,,2013-01-07 14:33:00,
2013-01-07 06:42:00,36.0,31.0,-100.00,West,280,19.0,26.0,83,0.00,,,0.00,0.000000,,2013-01-07 14:42:00,
2013-01-07 06:53:00,36.0,31.0,-100.00,West,280,19.0,26.0,83,0.00,,,0.00,0.000000,,2013-01-07 14:53:00,
2013-01-07 07:22:00,36.0,32.0,-100.00,West,281,11.0,29.0,84,0.00,,,0.00,0.000000,,2013-01-07 15:22:00,
2013-01-07 07:33:00,36.0,32.0,-100.00,West,281,11.0,29.0,84,0.00,,,0.00,0.000000,,2013-01-07 15:33:00,
2013-01-07 07:42:00,36.0,32.0,-100.00,West,281,11.0,29.0,84,0.00,,,0.00,0.000000,,2013-01-07 15:42:00,
2013-01-07 07:52:00,36.0,32.0,-100.00,West,281,11.0,29.0,84,0.00,,,0.00,0.000000,,2013-01-07 15:52:00,
2013-01-07 08:22:00,39.0,30.0,-100.00,West,276,14.0,26.0,71,0.00,,,0.00,41.000000,,2013-01-07 16:22:00,
2013-01-07 08:33:00,39.0,30.0,-100.00,West,276,14.0,26.0,71,0.00,,,0.00,41.000000,,2013-01-07 16:33:00,
2013-01-07 08:43:00,39.0,30.0,-100.00,West,276,14.0,26.0,71,0.00,,,0.00,41.000000,,2013-01-07 16:43:00,
2013-01-07 08:52:00,39.0,30.0,-100.00,West,276,14.0,26.0,71,0.00,,,0.00,41.000000,,2013-01-07 16:52:00,
2013-01-07 09:22:00,45.0,31.0,-100.00,WNW,284,14.0,27.0,57,0.00,,,0.00,238.000000,,2013-01-07 17:22:00,
2013-01-07 09:32:00,45.0,31.0,-100.00,WNW,284,14.0,27.0,57,0.00,,,0.00,238.000000,,2013-01-07 17:32:00,
2013-01-07 09:42:00,45.0,31.0,-100.00,WNW,284,14.0,27.0,57,0.00,,,0.00,238.000000,,2013-01-07 17:42:00,
2013-01-07 09:52:00,45.0,31.0,-100.00,WNW,284,14.0,27.0,57,0.00,,,0.00,238.000000,,2013-01-07 17:52:00,
2013-01-07 10:23:00,47.0,31.0,-100.00,WNW,289,17.0,25.0,53,0.00,,,0.00,422.000000,,2013-01-07 18:23:00,
2013-01-07 10:32:00,47.0,31.0,-100.00,WNW,289,17.0,25.0,53,0.00,,,0.00,422.000000,,2013-01-07 18:32:00,
2013-01-07 10:42:00,47.0,31.0,-100.00,WNW,289,17.0,25.0,53,0.00,,,0.00,422.000000,,2013-01-07 18:42:00,
2013-01-07 10:52:00,47.0,31.0,-100.00,WNW,289,17.0,25.0,53,0.00,,,0.00,422.000000,,2013-01-07 18:52:00,
2013-01-07 11:22:00,50.0,30.0,30.13,West,279,19.0,27.0,46,0.00,,,0.00,560.000000,,2013-01-07 19:22:00,
2013-01-07 11:33:00,50.0,30.0,30.13,West,279,19.0,27.0,46,0.00,,,0.00,560.000000,,2013-01-07 19:33:00,
2013-01-07 11:42:00,50.0,30.0,30.13,West,279,19.0,27.0,46,0.00,,,0.00,560.000000,,2013-01-07 19:42:00,
2013-01-07 11:52:00,50.0,30.0,30.13,West,279,19.0,27.0,46,0.00,,,0.00,560.000000,,2013-01-07 19:52:00,
2013-01-07 12:22:00,56.0,27.0,-100.00,WNW,303,6.0,22.0,32,0.00,,,0.00,631.000000,,2013-01-07 20:22:00,
2013-01-07 12:33:00,56.0,27.0,-100.00,WNW,303,6.0,22.0,32,0.00,,,0.00,631.000000,,2013-01-07 20:33:00,
2013-01-07 12:42:00,56.0,27.0,-100.00,WNW,303,6.0,22.0,32,0.00,,,0.00,631.000000,,2013-01-07 20:42:00,
2013-01-07 12:52:00,56.0,27.0,-100.00,WNW,303,6.0,22.0,32,0.00,,,0.00,631.000000,,2013-01-07 20:52:00,
2013-01-07 13:22:00,57.0,24.0,30.06,NE,53,6.0,11.0,28,0.00,,,0.00,545.000000,,2013-01-07 21:22:00,
2013-01-07 13:32:00,57.0,24.0,30.06,NE,53,6.0,11.0,28,0.00,,,0.00,545.000000,,2013-01-07 21:32:00,
2013-01-07 13:42:00,57.0,24.0,30.06,NE,53,6.0,11.0,28,0.00,,,0.00,545.000000,,2013-01-07 21:42:00,
2013-01-07 13:52:00,57.0,24.0,30.06,NE,53,6.0,11.0,28,0.00,,,0.00,545.000000,,2013-01-07 21:52:00,
2013-01-07 14:22:00,59.0,22.0,-100.00,East,84,8.0,14.0,24,0.00,,,0.00,584.000000,,2013-01-07 22:22:00,
2013-01-07 14:33:00,59.0,22.0,-100.00,East,84,8.0,14.0,24,0.00,,,0.00,584.000000,,2013-01-07 22:33:00,
2013-01-07 14:42:00,59.0,22.0,-100.00,East,84,8.0,14.0,24,0.00,,,0.00,584.000000,,2013-01-07 22:42:00,
2013-01-07 14:52:00,59.0,22.0,-100.00,East,84,8.0,14.0,24,0.00,,,0.00,584.000000,,2013-01-07 22:52:00,
2013-01-07 15:22:00,59.0,20.0,-100.00,East,93,5.0,12.0,22,0.00,,,0.00,423.000000,,2013-01-07 23:22:00,
2013-01-07 15:32:00,59.0,20.0,-100.00,East,93,5.0,12.0,22,0.00,,,0.00,423.000000,,2013-01-07 23:32:00,
2013-01-07 15:42:00,59.0,20.0,-100.00,East,93,5.0,12.0,22,0.00,,,0.00,423.000000,,2013-01-07 23:42:00,
2013-01-07 15:52:00,59.0,20.0,-100.00,East,93,5.0,12.0,22,0.00,,,0.00,423.000000,,2013-01-07 23:52:00,
2013-01-07 16:22:00,52.0,21.0,-100.00,West,279,15.0,24.0,29,0.00,,,0.00,252.000000,,2013-01-08 00:22:00,
2013-01-07 16:32:00,52.0,21.0,-100.00,West,279,15.0,24.0,29,0.00,,,0.00,252.000000,,2013-01-08 00:32:00,
2013-01-07 16:42:00,52.0,21.0,-100.00,West,279,15.0,24.0,29,0.00,,,0.00,252.000000,,2013-01-08 00:42:00,
2013-01-07 16:52:00,52.0,21.0,-100.00,West,279,15.0,24.0,29,0.00,,,0.00,252.000000,,2013-01-08 00:52:00,
2013-01-07 17:22:00,48.0,22.0,-100.00,NW,305,8.0,21.0,35,0.00,,,0.00,60.000000,,2013-01-08 01:22:00,
2013-01-07 17:32:00,48.0,22.0,-100.00,NW,305,8.0,21.0,35,0.00,,,0.00,60.000000,,2013-01-08 01:32:00,
2013-01-07 17:42:00,48.0,22.0,-100.00,NW,305,8.0,21.0,35,0.00,,,0.00,60.000000,,2013-01-08 01:42:00,
2013-01-07 17:52:00,48.0,22.0,-100.00,NW,305,8.0,21.0,35,0.00,,,0.00,60.000000,,2013-01-08 01:52:00,
2013-01-07 18:22:00,45.0,19.0,-100.00,WNW,298,9.0,13.0,35,0.00,,,-99.99,1.000000,,2013-01-08 02:22:00,
2013-01-07 18:32:00,45.0,19.0,-100.00,WNW,298,9.0,13.0,35,0.00,,,-99.99,1.000000,,2013-01-08 02:32:00,
2013-01-07 18:42:00,45.0,19.0,-100.00,WNW,298,9.0,13.0,35,0.00,,,-99.99,1.000000,,2013-01-08 02:42:00,
2013-01-07 18:52:00,45.0,19.0,-100.00,WNW,298,9.0,13.0,35,0.00,,,-99.99,1.000000,,2013-01-08 02:52:00,
2013-01-07 19:22:00,43.0,18.0,-100.00,WNW,297,9.0,14.0,36,0.00,,,0.00,0.000000,,2013-01-08 03:22:00,
2013-01-07 19:32:00,43.0,18.0,-100.00,WNW,297,9.0,14.0,36,0.00,,,0.00,0.000000,,2013-01-08 03:32:00,
2013-01-07 19:42:00,43.0,18.0,-100.00,WNW,297,9.0,14.0,36,0.00,,,0.00,0.000000,,2013-01-08 03:42:00,
2013-01-07 19:52:00,43.0,18.0,-100.00,WNW,297,9.0,14.0,36,0.00,,,0.00,0.000000,,2013-01-08 03:52:00,
2013-01-07 20:22:00,42.0,18.0,-100.00,NW,314,9.0,13.0,38,0.00,,,0.00,0.000000,,2013-01-08 04:22:00,
2013-01-07 20:32:00,42.0,18.0,-100.00,NW,314,9.0,13.0,38,0.00,,,0.00,0.000000,,2013-01-08 04:32:00,
2013-01-07 20:42:00,42.0,18.0,-100.00,NW,314,9.0,13.0,38,0.00,,,0.00,0.000000,,2013-01-08 04:42:00,
2013-01-07 20:52:00,42.0,18.0,-100.00,NW,314,9.0,13.0,38,0.00,,,0.00,0.000000,,2013-01-08 04:52:00,
2013-01-07 21:22:00,38.0,13.0,-100.00,NNW,334,9.0,12.0,36,0.00,,,0.00,0.000000,,2013-01-08 05:22:00,
2013-01-07 21:33:00,38.0,13.0,-100.00,NNW,334,9.0,12.0,36,0.00,,,0.00,0.000000,,2013-01-08 05:33:00,
2013-01-07 21:42:00,38.0,13.0,-100.00,NNW,334,9.0,12.0,36,0.00,,,0.00,0.000000,,2013-01-08 05:42:00,
2013-01-07 21:52:00,38.0,13.0,-100.00,NNW,334,9.0,12.0,36,0.00,,,0.00,0.000000,,2013-01-08 05:52:00,
2013-01-07 22:22:00,38.0,15.0,-100.00,NW,322,10.0,15.0,39,0.00,,,0.00,0.000000,,2013-01-08 06:22:00,
2013-01-07 22:32:00,38.0,15.0,-100.00,NW,322,10.0,15.0,39,0.00,,,0.00,0.000000,,2013-01-08 06:32:00,
2013-01-07 22:42:00,38.0,15.0,-100.00,NW,322,10.0,15.0,39,0.00,,,0.00,0.000000,,2013-01-08 06:42:00,
2013-01-07 22:52:00,38.0,15.0,-100.00,NW,322,10.0,15.0,39,0.00,,,0.00,0.000000,,2013-01-08 06:52:00,
2013-01-07 23:22:00,40.0,18.0,-100.00,NW,313,7.0,13.0,40,0.00,,,0.00,0.000000,,2013-01-08 07:22:00,
2013-01-07 23:32:00,40.0,18.0,-100.00,NW,313,7.0,13.0,40,0.00,,,0.00,0.000000,,2013-01-08 07:32:00,
2013-01-07 23:42:00,40.0,18.0,-100.00,NW,313,7.0,13.0,40,0.00,,,0.00,0.000000,,2013-01-08 07:42:00,
2013-01-07 23:52:00,40.0,18.0,-100.00,NW,313,7.0,13.0,40,0.00,,,0.00,0.000000,,2013-01-08 07:52:00,